Location: Hopewell Observatory
(38.8698°N, 77.6988°W)
Time: 17:51:46
(UTC-04:00)

Meteor 1-19 Rocket - Pass Details

Date: 26 May 2018
Orbit: 826 x 909 km, 81.2° (Epoch: 17 October)

Event Time Altitude Azimuth Distance (km) Brightness Sun altitude
Rises 21:09:42 0° 178° (S) 3,513 7.0 -8.1°
Reaches altitude 10° 21:12:10 10° 175° (S) 2,581 6.3 -8.4°
Maximum altitude 21:17:59 63° 95° (E) 1,009 4.4 -9.3°
Drops below altitude 10° 21:23:50 10° 16° (NNE) 2,595 7.0 -10.2°
Sets 21:26:20 0° 13° (NNE) 3,534 7.8 -10.6°
